9P/Tempel 1 (2005)

Japanese version
Home page
Updated on February 12, 2007

---------------------------------------------------------------------

* Profile

* Pictures

* Orbital Elements

Epoch 2005 July 9.0 TT = JDT 2453560.5
T 2005 July 5.3153 TT                                   MPCN
q   1.506167             (2000.0)            P               Q
n   0.1787117      Peri.  178.8390      -0.3779058      +0.9100015
a   3.121530       Node    68.9373      -0.8509115      -0.2687824
e   0.517491       Incl.   10.5301      -0.3648792      -0.3156792
P   5.52
From 672 observations 1967-2000, mean residual 0".8.  Nongravitational
     parameters A1 = +0.01, A2 = +0.0018.

* Finding Charts

* Magnitudes Graph

        m1 = 14.0 + 5 log d +  7.5 log r  [    ,-290]  (             - 2004 Sept.18)
        m1 =  6.0 + 5 log d + 25   log r  [-290, 290]  (2004 Sept.18 - 2006 Apr. 21)
        m1 = 14.0 + 5 log d +  7.5 log r  [ 290,    ]  (2006 Apr. 21 -             )

---------------------------------------------------------------------

The orbital elements are published at the MPC Ephemerides and Orbital Elements.
The charts are made with StellaNavigator Ver.2.0 for Windows (AstroArts / ASCII).
The magnitudes graphs are made with Comet for Windows.

---------------------------------------------------------------------

Copyright(C) Seiichi Yoshida (comet@aerith.net). All rights reserved.